This is the latest recevied weather packets stored in our database for station/object JA6YCL-13. If no packets are shown the sender has not sent any weather packets the latest 10 day(s).
| Time | Temp. | Humidity | Pressure | Rain* | Wind** | Luminosity | Snow |
|---|---|---|---|---|---|---|---|
| 1778027003 | 16.67° C | 66% | 1020.1 hPa | 0 mm | - | - | - |
| 1778026133 | 16.11° C | 68% | 1020.1 hPa | 0 mm | - | - | - |
| 1778025343 | 15.56° C | 69% | 1020.2 hPa | 0 mm | - | - | - |
| 1778024500 | 15° C | 70% | 1020.4 hPa | 0 mm | - | - | - |
| 1778023672 | 14.44° C | 73% | 1020.1 hPa | 0 mm | - | - | - |
| 1778022923 | 13.89° C | 74% | 1020.4 hPa | 0 mm | - | - | - |
| 1778022158 | 13.33° C | 76% | 1020.4 hPa | 0 mm | - | - | - |
| 1778021303 | 12.78° C | 81% | 1020.6 hPa | 0 mm | - | - | - |
| 1778020475 | 12.22° C | 82% | 1020.5 hPa | 0 mm | - | - | - |
| 1778019600 | 12.22° C | 81% | 1020.6 hPa | 0 mm | - | - | - |
| 1778018875 | 12.22° C | 81% | 1020.7 hPa | 0 mm | - | - | - |
| 1778017976 | 11.11° C | 85% | 1020.5 hPa | 0 mm | - | - | - |
| 1778017188 | 10.56° C | 87% | 1020.8 hPa | 0 mm | - | - | - |
| 1778016293 | 10.56° C | 88% | 1020.7 hPa | 0 mm | - | - | - |
| 1778015473 | 10° C | 88% | 1020.5 hPa | 0 mm | - | - | - |
| 1778014688 | 10° C | 89% | 1020.2 hPa | 0 mm | - | - | - |
| 1778013845 | 10° C | 89% | 1020.5 hPa | 0 mm | - | - | - |
| 1778013048 | 10° C | 89% | 1020.3 hPa | 0 mm | - | - | - |
| 1778012158 | 10° C | 89% | 1020.5 hPa | 0 mm | - | - | - |
| 1778011301 | 10° C | 89% | 1020.5 hPa | 0 mm | - | - | - |
| 1778010553 | 10.56° C | 88% | 1020.4 hPa | 0 mm | - | - | - |
| 1778009703 | 10.56° C | 88% | 1020.1 hPa | 0 mm | - | - | - |
| 1778008818 | 10° C | 88% | 1020.1 hPa | 0 mm | - | - | - |
| 1778007998 | 10° C | 88% | 1020 hPa | 0 mm | - | - | - |
| 1778007109 | 10° C | 87% | 1020.1 hPa | 0 mm | - | - | - |
* Rain latest hour (hover to see other rain measurements)
** Current wind speed in m/s (hover to see current wind gust speed)